Location: Boullarre
(49.1305°N, 3.0047°E)
Time: 23:21:13
(UTC+00:00)

SL-08 ROCKET BODY - Visible Passes

Search period start: 10 October 2024 00:00
Search period end: 20 October 2024 00:00
Orbit: 896 x 962 km, 82.9° (Epoch: 10 October)

Date Brightness Start Highest point End Pass type
(mag) Time Alt. Az. Time Alt. Az. Time Alt. Az.
10 Oct 5.0 18:52:13 10° NNW 18:58:03 57° W 19:03:46 10° S visible
11 Oct 5.6 19:03:48 10° NNW 19:09:21 41° W 19:14:48 10° SSW visible
12 Oct 4.6 17:30:41 10° N 17:36:28 48° ENE 17:42:07 10° SSE visible
12 Oct 6.2 19:15:30 10° NNW 19:20:36 30° W 19:25:37 10° SW visible
13 Oct 7.6 05:17:00 10° E 05:19:30 13° ENE 05:22:00 10° NE visible
13 Oct 4.4 17:42:02 10° N 17:47:58 65° ENE 17:53:47 10° SSE visible
13 Oct 6.7 19:27:20 10° NNW 19:31:47 22° W 19:36:11 10° SW visible
14 Oct 7.3 05:26:43 10° ESE 05:30:36 18° E 05:34:28 10° NE visible
14 Oct 4.4 17:53:26 10° N 17:59:25 87° E 18:05:17 10° S visible
14 Oct 7.2 19:39:26 10° NW 19:42:55 16° WNW 19:46:24 10° WSW visible
15 Oct 7.1 05:37:02 10° SE 05:41:46 24° E 05:46:28 10° NNE visible
15 Oct 4.7 18:04:54 10° NNW 18:10:49 70° W 18:16:37 10° S visible
15 Oct 7.5 19:52:10 10° NW 19:54:01 11° WNW 19:55:51 10° W visible
16 Oct 5.3 18:16:25 10° NNW 18:22:09 51° W 18:27:46 10° SSW visible
17 Oct 5.9 18:28:03 10° NNW 18:33:25 37° W 18:38:44 10° SSW visible
18 Oct 6.5 18:39:47 10° NNW 18:44:39 27° W 18:49:29 10° SW visible
19 Oct 7.5 04:40:35 10° ESE 04:43:33 14° ENE 04:46:30 10° NE visible
19 Oct 7.0 18:51:40 10° NW 18:55:49 20° W 18:59:56 10° SW visible
